[[{"header":{"parameterUnit":"m.s-1","parameterCategory":1,"la1":30.2991,"la2":30.254,"lo1":-89.0895,"lo2":-89.0444,"dy":0.0017,"dx":0.0017,"nx":28,"ny":28,"refTime":"2025-02-13T03:00:00:Z","depth":0,"parameterNumber":2,"parameterNumberName":"U-component_of_WINDS"},"data":[0,0,0,0,0,0,0,0,0,0,0,0,0,0,0,0,0,0,0,0,0,0,0,0,0,0,0,0,0,0,0,0,0,0,0,0,0,0,0,0,0,0,0,0,0,0,0,0,0,0,0,0,0,0,0,0,0,0,2.6289,2.6289,0,2.6278,2.6278,2.6278,2.6247,2.6247,2.6246,2.6245,2.6235,2.6235,2.6235,0,0,0,0,0,0,0,0,0,0,0,0,0,2.6285,2.6285,2.6289,2.6289,2.6289,2.6278,2.6278,2.6278,2.6247,2.6247,2.6246,2.6245,2.6235,2.6235,2.6235,0,0,0,0,0,0,0,0,0,0,0,0,0,2.6282,2.6285,2.6289,2.6272,2.6271,2.6278,2.6278,2.6278,2.6248,2.6247,2.6246,2.6245,2.6234,2.6235,2.6235,2.6258,0,0,2.6237,2.6237,0,0,0,0,0,0,0,0,2.6282,2.6282,2.6275,2.6274,2.6272,2.6263,2.6273,2.6271,2.6248,2.6256,2.6245,2.6244,2.6245,2.6245,2.6245,2.6258,2.6258,2.6237,2.6237,2.6238,2.6238,0,0,0,0,0,0,0,2.6282,2.6282,2.6285,2.6275,2.6273,2.6266,2.6264,2.6272,2.6256,2.6256,2.6253,2.6252,2.6244,2.6244,2.6244,2.6257,2.6237,2.6237,2.6238,2.6238,2.629,2.6291,0,0,0,0,0,0,2.6285,2.6283,2.6285,2.6284,2.6275,2.6267,2.6265,2.6267,2.6256,2.6254,2.6253,2.6251,2.6244,2.6244,2.6244,2.6271,2.6238,2.6238,2.6238,2.6289,2.629,2.6292,0,0,0,0,0,0,2.6285,2.6285,2.6286,2.6283,2.6282,2.6268,2.627,2.6267,2.6267,2.6255,2.6252,2.6256,2.6243,2.6243,2.6255,2.627,2.6238,2.6239,2.6288,2.6289,2.6291,2.6324,0,0,0,0,0,0,2.6285,2.6285,2.6294,2.6283,2.6283,2.6297,2.6271,2.6268,2.6268,2.6265,2.6257,2.6254,2.6242,2.6255,2.6256,2.627,2.6239,2.6286,2.6289,2.629,2.6322,2.6327,2.6331,0,0,0,0,0,2.6285,2.6303,2.6294,2.6295,2.6293,2.6298,2.6297,2.6283,2.627,2.6278,2.627,2.6255,2.6268,2.6256,2.6257,2.6272,2.6285,2.6288,2.629,2.632,2.6326,2.6331,0,0,0,0,0,0,2.6315,2.6302,2.6291,2.6307,2.6304,2.6293,2.6303,2.629,2.629,2.6288,2.627,2.6268,2.6283,2.6279,2.6266,2.6294,2.6274,2.6277,2.6296,2.6302,2.6307,2.6307,2.6239,0,0,0,0,0,2.6324,2.6329,2.6317,2.6332,2.6331,2.6317,2.6319,2.6308,2.6304,2.6303,2.6295,2.6293,2.6296,2.6299,2.6301,2.6321,2.6319,2.6332,2.6336,2.634,2.6343,2.6354,2.6359,2.63,2.63,2.6299,0,0,2.6342,2.6335,2.6339,2.6338,2.6334,2.6341,2.6316,2.6324,2.6328,2.6304,2.6315,2.631,2.6305,2.6322,2.6329,2.6318,2.6359,2.6343,2.6346,2.6347,2.6357,2.6362,2.6367,2.6301,2.6301,2.6301,0,0,2.6377,2.6373,2.6385,2.6382,2.6377,2.6368,2.6371,2.6362,2.6357,2.6368,2.6351,2.6356,2.6362,2.636,2.636,2.6396,2.6383,2.6398,2.6422,2.6433,2.6438,2.6442,2.6455,2.646,2.64,2.6401,2.6401,0,2.64,2.6408,2.6393,2.6402,2.6402,2.6381,2.6394,2.6392,2.6388,2.6389,2.6377,2.6386,2.6381,2.6397,2.6406,2.6406,2.641,2.6398,2.6438,2.6442,2.6446,2.6458,2.6463,2.6402,2.6402,2.6402,2.6402,0,2.6437,2.6443,2.6454,2.6451,2.6452,2.6463,2.645,2.6454,2.6443,2.6436,2.6448,2.6442,2.6443,2.6446,2.6436,2.6461,2.6455,2.6441,2.6421,2.6454,2.6465,2.647,2.6405,2.6404,2.6404,2.6403,0,0,2.649,2.6479,2.6484,2.6482,2.6476,2.6481,2.6491,2.6492,2.6496,2.6495,2.6503,2.651,2.6497,2.6497,2.6487,2.6496,2.6526,2.6481,2.6481,2.649,2.6554,2.6564,2.657,2.6517,2.6518,2.6519,2.6555,0,2.6524,2.654,2.6528,2.6547,2.6553,2.6534,2.6543,2.654,2.6534,2.6538,2.6531,2.6536,2.6519,2.6519,2.6528,2.6521,2.6539,2.6518,2.6525,2.6526,2.6527,2.6576,2.6587,2.6621,2.6559,2.656,2.656,0,2.6565,2.6566,2.6586,2.6579,2.6581,2.6589,2.659,2.6595,2.6592,2.6586,2.6587,2.6574,2.6585,2.6565,2.658,2.6566,2.6568,2.6565,2.6566,2.6566,2.6545,2.6578,2.6631,2.6637,2.6567,2.6567,2.6566,0,2.6602,2.6608,2.6621,2.6621,2.6613,2.662,2.6617,2.6613,2.6615,2.6616,2.6617,2.662,2.6621,2.6623,2.6612,2.6599,2.6628,2.6607,2.6624,2.6624,2.6631,2.663,2.6686,2.6632,2.6632,2.6632,2.6632,0,2.6641,2.6654,2.6638,2.6646,2.666,2.6646,2.6661,2.6656,2.6653,2.666,2.6643,2.6651,2.6635,2.6641,2.6632,2.6646,2.6646,2.6643,2.664,2.6644,2.6645,2.6645,2.6642,2.6634,2.6633,2.6633,2.6633,0,2.6685,2.6674,2.6687,2.668,2.6678,2.6689,2.6682,2.669,2.6683,2.6692,2.6693,2.6682,2.6688,2.6678,2.6682,2.6676,2.6695,2.6689,2.6696,2.6694,2.6712,2.671,2.6769,2.6776,2.6719,2.672,2.672,0,2.671,2.672,2.6713,2.6717,2.6715,2.6721,2.6723,2.671,2.6713,2.6712,2.6719,2.6724,2.6727,2.6738,2.673,2.6734,2.6728,2.6748,2.6728,2.6732,2.6728,2.6728,2.6729,2.6752,2.6753,2.6753,2.6754,0,2.6756,2.6751,2.6755,2.6757,2.6761,2.6762,2.6762,2.6766,2.6752,2.6757,2.6763,2.6765,2.677,2.6776,2.6778,2.6775,2.6763,2.6761,2.6765,2.6768,2.6772,2.6771,2.6708,2.6759,2.6758,2.6758,2.6758,2.6758,2.6791,2.6799,2.6796,2.6802,2.6801,2.6802,2.6808,2.6803,2.6807,2.6811,2.6803,2.6811,2.6809,2.6811,2.681,2.6816,2.6807,2.6813,2.6814,2.6816,2.6819,2.6772,2.6816,2.6816,2.6816,2.6816,2.6816,0,2.6837,2.6834,2.6839,2.684,2.6845,2.6833,2.6833,2.6837,2.6845,2.6844,2.6848,2.6855,2.6861,2.6854,2.6859,2.6865,2.6859,2.6867,2.6866,2.6866,2.6827,2.6823,2.6871,2.6871,2.6871,2.6871,2.6871,2.6871,2.6861,2.6874,2.6869,2.6882,2.6879,2.6887,2.6888,2.6889,2.6889,2.6898,2.6902,2.6898,2.6896,2.69,2.6904,2.6902,2.6905,2.6914,2.691,2.6874,2.6868,2.6863,2.6859,2.6915,2.6915,2.6949,2.6949,2.6949]},{"header":{"parameterUnit":"m.s-1","parameterCategory":1,"la1":30.2991,"la2":30.254,"lo1":-89.0895,"lo2":-89.0444,"dy":0.0017,"dx":0.0017,"nx":28,"ny":28,"refTime":"2025-02-13T03:00:00:Z","depth":0,"parameterNumber":3,"parameterNumberName":"V-component_of_WINDS"},"data":[0,0,0,0,0,0,0,0,0,0,0,0,0,0,0,0,0,0,0,0,0,0,0,0,0,0,0,0,0,0,0,0,0,0,0,0,0,0,0,0,0,0,0,0,0,0,0,0,0,0,0,0,0,0,0,0,0,0,5.1286,5.1287,0,5.1346,5.1347,5.1348,5.1329,5.1327,5.1326,5.1325,5.1386,5.1389,5.1392,0,0,0,0,0,0,0,0,0,0,0,0,0,5.1154,5.1157,5.1286,5.1287,5.1287,5.1346,5.1347,5.1348,5.1329,5.1327,5.1326,5.1324,5.1385,5.1389,5.1392,0,0,0,0,0,0,0,0,0,0,0,0,0,5.1213,5.1157,5.1286,5.1285,5.1286,5.1346,5.1347,5.1348,5.1329,5.1327,5.1325,5.1324,5.1384,5.1388,5.1392,5.1457,0,0,5.1405,5.1407,0,0,0,0,0,0,0,0,5.1209,5.1217,5.1284,5.1285,5.1286,5.1328,5.1323,5.1385,5.133,5.1313,5.1325,5.1323,5.1368,5.1374,5.1389,5.146,5.1463,5.1406,5.1408,5.141,5.1411,0,0,0,0,0,0,0,5.1205,5.1215,5.131,5.1285,5.1286,5.1282,5.1288,5.1335,5.1351,5.1314,5.1313,5.132,5.1368,5.1385,5.1391,5.1464,5.1406,5.1409,5.1412,5.1414,5.1592,5.1594,0,0,0,0,0,0,5.1201,5.1211,5.1308,5.1312,5.1242,5.1286,5.1293,5.1316,5.135,5.1353,5.1322,5.1319,5.1379,5.1386,5.1393,5.1472,5.141,5.1414,5.1417,5.159,5.1593,5.1595,0,0,0,0,0,0,5.1198,5.121,5.1305,5.1261,5.1273,5.129,5.1317,5.1319,5.1336,5.1356,5.1359,5.1336,5.1378,5.1387,5.1442,5.1474,5.1416,5.142,5.1587,5.1591,5.1594,5.1631,0,0,0,0,0,0,5.1194,5.1209,5.1233,5.1262,5.1276,5.1354,5.1319,5.1321,5.1343,5.134,5.137,5.1373,5.1377,5.1435,5.1446,5.1479,5.1423,5.1585,5.1589,5.1593,5.1627,5.1635,5.1642,0,0,0,0,0,5.119,5.1241,5.1235,5.1246,5.1307,5.1355,5.1363,5.1367,5.1346,5.1371,5.1384,5.1372,5.1468,5.1441,5.1453,5.1487,5.1583,5.1588,5.1592,5.1623,5.1633,5.1642,0,0,0,0,0,0,5.1215,5.1244,5.1238,5.13,5.1326,5.1352,5.1384,5.1377,5.1408,5.1404,5.1407,5.1414,5.1471,5.1484,5.1453,5.1553,5.1522,5.153,5.1542,5.1552,5.1559,5.1555,5.1427,0,0,0,0,0,5.1228,5.1265,5.1289,5.1341,5.1354,5.1367,5.1388,5.1389,5.1415,5.1426,5.1443,5.1469,5.1505,5.1529,5.1563,5.1628,5.1635,5.1658,5.1665,5.1671,5.1678,5.1715,5.1726,5.1611,5.1611,5.1611,0,0,5.1255,5.1275,5.1299,5.1347,5.1366,5.1405,5.1376,5.1418,5.1447,5.1432,5.1485,5.1499,5.1528,5.1589,5.1616,5.1602,5.1711,5.1678,5.1682,5.1686,5.1722,5.1732,5.1742,5.1614,5.1614,5.1613,0,0,5.1324,5.1343,5.1389,5.141,5.1441,5.1449,5.146,5.1488,5.1497,5.1551,5.1541,5.1575,5.1637,5.1658,5.1678,5.1756,5.1747,5.1767,5.1807,5.1843,5.1852,5.186,5.189,5.19,5.1773,5.1774,5.1774,0,5.1353,5.1412,5.1414,5.1457,5.1479,5.1468,5.1516,5.1535,5.1575,5.1591,5.1574,5.1652,5.1671,5.1738,5.1757,5.1772,5.1786,5.1764,5.1851,5.1859,5.1866,5.1895,5.1906,5.1776,5.1776,5.1775,5.1775,0,5.1447,5.1488,5.1522,5.1562,5.1587,5.1632,5.1642,5.1667,5.1666,5.1676,5.1732,5.1754,5.1793,5.1808,5.1807,5.1875,5.1866,5.185,5.182,5.188,5.1907,5.1917,5.1779,5.1778,5.1778,5.1777,0,0,5.1534,5.1576,5.1588,5.1607,5.164,5.1672,5.1717,5.1756,5.1778,5.1806,5.1845,5.1898,5.1884,5.1905,5.1906,5.1938,5.2001,5.1918,5.1919,5.1934,5.2079,5.2092,5.2105,5.1994,5.1996,5.1998,5.2077,0,5.1608,5.1687,5.1691,5.1764,5.1802,5.1792,5.1831,5.1856,5.1867,5.1901,5.1912,5.1951,5.1928,5.1942,5.1972,5.1986,5.203,5.198,5.2031,5.2033,5.2026,5.2118,5.2132,5.2206,5.2088,5.2089,5.2091,0,5.1704,5.1736,5.1813,5.1842,5.1858,5.1893,5.193,5.1962,5.1991,5.1996,5.2021,5.2018,5.2064,5.2032,5.2097,5.2063,5.2084,5.2094,5.2097,5.2103,5.2066,5.2129,5.223,5.2242,5.2107,5.2106,5.2104,0,5.1762,5.1824,5.1879,5.1895,5.1929,5.1955,5.197,5.1997,5.202,5.2052,5.2068,5.2104,5.2125,5.2154,5.216,5.2136,5.2226,5.2193,5.2233,5.2233,5.2253,5.2252,5.2361,5.2264,5.2264,5.2264,5.2264,0,5.1844,5.1892,5.1905,5.1939,5.1992,5.1996,5.2049,5.2063,5.2087,5.2123,5.2116,5.215,5.2156,5.2192,5.2197,5.2251,5.226,5.2267,5.2268,5.2268,5.2268,5.2283,5.2279,5.2267,5.2266,5.2265,5.2265,0,5.1919,5.193,5.1989,5.2017,5.2025,5.2064,5.2088,5.2121,5.213,5.2177,5.2188,5.2204,5.2246,5.2255,5.2304,5.2308,5.2373,5.2368,5.2364,5.2364,5.2403,5.24,5.2527,5.2545,5.2435,5.2436,5.2436,0,5.1972,5.2008,5.2041,5.2065,5.2083,5.2121,5.2146,5.2151,5.2177,5.2212,5.2241,5.2282,5.2315,5.2383,5.2399,5.2437,5.2434,5.2476,5.244,5.244,5.2437,5.2435,5.244,5.2483,5.2485,5.2485,5.2486,0,5.2064,5.2068,5.2104,5.2142,5.2172,5.2202,5.223,5.225,5.2259,5.2289,5.2332,5.2358,5.2409,5.2451,5.2489,5.2505,5.2498,5.2497,5.2509,5.2511,5.2507,5.2511,5.2384,5.2495,5.2494,5.2493,5.2493,5.2492,5.2131,5.2164,5.2193,5.2233,5.2255,5.2282,5.2315,5.2329,5.2365,5.2408,5.2408,5.2456,5.2484,5.2535,5.2554,5.2591,5.2578,5.2594,5.2599,5.2603,5.2608,5.25,5.2598,5.2598,5.2598,5.2597,5.2597,0,5.2225,5.2243,5.228,5.2321,5.2353,5.2343,5.2375,5.2402,5.2444,5.2471,5.2505,5.2555,5.2595,5.2615,5.2655,5.2681,5.2679,5.2692,5.2691,5.2695,5.2616,5.2603,5.2693,5.2693,5.2693,5.2693,5.2693,5.2693,5.2278,5.2334,5.2341,5.2408,5.2425,5.2472,5.2491,5.2517,5.2538,5.2595,5.2629,5.2641,5.2666,5.2708,5.2745,5.2749,5.2765,5.278,5.2784,5.271,5.27,5.2691,5.2679,5.2783,5.2783,5.2859,5.286,5.2861]}]]